Fort Rucker / Ozark, AL

3:12 PM CDT on September 19, 2017 (GMT -0500)
Fort Rucker / Ozark

Weather History for KHEY - January, 2014

Change the Weather History Date:

Wednesday, January 15, 2014

  Actual Average (KOZR) Record (KOZR)
Temperature  
Mean Temperature 42 °F -  
Max Temperature 53 °F 58 °F 77 °F (2013)
Min Temperature 32 °F 36 °F 22 °F (2011)
Degree Days  
Heating Degree Days 22    
Moisture  
Dew Point 28 °F    
Average Humidity 63    
Maximum Humidity 96    
Minimum Humidity 37    
Precipitation  
Precipitation 0.00 in - - ()
Sea Level Pressure  
Sea Level Pressure 30.03 in    
Wind  
Wind Speed 4 mph (NW)    
Max Wind Speed 17 mph    
Max Gust Speed 22 mph    
Visibility 10 miles    
Events      
Averages and records for this station are not official NWS values.
T = Trace of Precipitation, MM = Missing Value Source: NWS Daily Summary

Daily Weather History Graph

Daily Weather History Graph

Search for Another Location

Airport or City:

Trip Planner

Search our weather history database for the weather conditions in past years. The results will help you decide how hot, cold, wet, or windy it might be!

Date:

Astronomy

Jan. 15, 2014 Rise Set
Actual Time 6:42 AM CST 5:02 PM CST
Civil Twilight 6:15 AM CST 5:28 PM CST
Nautical Twilight 5:46 AM CST 5:58 PM CST
Astronomical Twilight 5:16 AM CST 6:27 PM CST
Moon 4:55 PM CST (1/15) 6:00 AM CST (1/15)
Length of Visible Light 11h 12m
Length of Day
10h 20m
Full, 100% of the Moon is Illuminated
Jan 15
Full
Jan 15
Full
Jan 23
Last Quarter
Jan 30
New
Feb 6
First Quarter

Hourly Weather History & Observations

Time (CST) Temp. Windchill Dew Point Humidity Pressure Visibility Wind Dir Wind Speed Gust Speed Precip Events Conditions
12:53 AM 36.0 °F - 33.1 °F 89% 29.99 in 10.0 mi Calm Calm - N/A   Clear
1:53 AM 35.1 °F - 33.1 °F 92% 30.00 in 10.0 mi Calm Calm - N/A   Clear
2:53 AM 35.1 °F - 32.0 °F 89% 29.99 in 10.0 mi Calm Calm - N/A   Clear
3:53 AM 32.0 °F - 30.0 °F 92% 29.98 in 10.0 mi Calm Calm - N/A   Clear
4:53 AM 32.0 °F - 30.0 °F 92% 29.98 in 10.0 mi Calm Calm - N/A   Clear
5:53 AM 33.1 °F - 32.0 °F 96% 29.99 in 10.0 mi Calm Calm - N/A   Clear
6:53 AM 33.1 °F - 30.9 °F 92% 30.01 in 10.0 mi Calm Calm - N/A   Clear
7:53 AM 39.9 °F - 35.1 °F 83% 30.04 in 10.0 mi Calm Calm - N/A   Clear
8:53 AM 46.0 °F 41.0 °F 36.0 °F 68% 30.06 in 10.0 mi NNW 10.4 mph - N/A   Clear
9:53 AM 50.0 °F - 34.0 °F 54% 30.06 in 10.0 mi North 17.3 mph - N/A   Clear
10:53 AM 52.0 °F - 35.1 °F 53% 30.04 in 10.0 mi NNW 12.7 mph 21.9 mph N/A   Clear
11:53 AM 53.1 °F - 35.1 °F 50% 29.99 in 10.0 mi WNW 5.8 mph - N/A   Scattered Clouds
12:53 PM 52.0 °F - 33.1 °F 49% 29.98 in 10.0 mi NW 8.1 mph 18.4 mph N/A   Mostly Cloudy
1:53 PM 50.0 °F - 33.1 °F 52% 29.99 in 10.0 mi WNW 11.5 mph 17.3 mph N/A   Overcast
2:53 PM 52.0 °F - 28.0 °F 40% 30.00 in 10.0 mi NNW 13.8 mph 21.9 mph N/A   Clear
3:53 PM 51.1 °F - 26.1 °F 38% 30.00 in 10.0 mi NW 5.8 mph - N/A   Clear
4:53 PM 46.9 °F - 21.9 °F 37% 30.01 in 10.0 mi NW 6.9 mph - N/A   Clear
5:53 PM 43.0 °F 40.3 °F 24.1 °F 47% 30.03 in 10.0 mi NW 4.6 mph - N/A   Clear
6:53 PM 41.0 °F 37.1 °F 23.0 °F 49% 30.06 in 10.0 mi WNW 5.8 mph - N/A   Clear
7:53 PM 39.0 °F 35.7 °F 19.9 °F 46% 30.07 in 10.0 mi WNW 4.6 mph - N/A   Clear
8:53 PM 37.0 °F 33.3 °F 21.0 °F 52% 30.08 in 10.0 mi WNW 4.6 mph - N/A   Clear
9:53 PM 36.0 °F 30.3 °F 19.9 °F 52% 30.09 in 10.0 mi WNW 6.9 mph - N/A   Clear
10:53 PM 37.0 °F 31.0 °F 17.1 °F 44% 30.09 in 10.0 mi NW 8.1 mph - N/A   Clear
11:53 PM 36.0 °F 31.1 °F 16.0 °F 44% 30.09 in 10.0 mi NW 5.8 mph - N/A   Clear